Terminal Aerodrome Forecast
Issued by NWS Omaha/Valley, NE

Home | Current Version | Previous Version | Graphics & Text | Print | Product List | Glossary On
Versions: 1 2 3 4 5 6 7 8 9 10 11 12 13 14 15 16 17 18 19 20 21 22 23 24 25 26 27 28 29 30 31 32 33 34 35 36 37 38 39 40 41
000
FTUS43 KOAX 242326
TAFOFK
TAF
KOFK 242326Z 2500/2524 16013KT P6SM SCT035
     FM250300 14007KT P6SM OVC050
     FM250600 09008KT P6SM OVC020
      TEMPO 2508/2512 BKN010
     FM251200 01013KT P6SM OVC010=

USA.gov is the U.S. government's official web portal to all federal, state and local government web resources and services.